World > North America > United States > Ohio

Hamilton, Ohio Regional Weather

Lat: 39.39N, Lon: 84.56W
Wx Zone: OHZ070
Feedback

Hamilton, OH Regional Weather

Expires:201907231600;;513019
ASUS41 KCLE 231512
RWRCLE
OHIO REGIONAL WEATHER ROUNDUP
NATIONAL WEATHER SERVICE WILMINGTON, OH
1100 AM EDT TUE JUL 23 2019

NOTE: "FAIR" INDICATES FEW OR NO CLOUDS BELOW 12,000 FEET WITH NO
SIGNIFICANT WEATHER AND/OR OBSTRUCTIONS TO VISIBILITY.


OHZ042-051>053-060>062-070>072-077>081-231600-
  SOUTHWEST OHIO
  
CITY           SKY/WX    TMP DP  RH WIND       PRES   REMARKS
CINC-COVINGTON FAIR      74  53  48 NE10      30.07R                  
CINC-LUNKEN    FAIR      75  55  49 NE10      30.06S                  
HAMILTON       NOT AVBL                                               
DAYTON         FAIR      73  58  59 N8        30.08S                  
WRIGHT-PAT AFB FAIR      72  58  60 N7        30.06S                  
DAYTON GENERAL FAIR      75  52  44 N10       30.07R                  
WILMINGTON     FAIR      73  56  54 N10       30.06R                  
$$


SKY/WX - Weather  TMP - Temperature  DP - Dew Point  RH - Relative Humidity
WIND - Wind Direction/Speed PRES - Barometric Pressure VSB - Visibility
WCI - Wind Chill Index E13G22 Wind - East Wind 13 mph/Gusts of 22 mph